Location: Newark
(37.3167°N, 13.4667°E)
Time: 13:50:53
(UTC+00:00)

Falcon 9 debris - Visible Passes

Search period start: 18 August 2019 00:00
Search period end: 28 August 2019 00:00
Orbit: 432 x 438 km, 53.0° (Epoch: 16 August)

Date Brightness Start Highest point End Pass type
(mag) Time Alt. Az. Time Alt. Az. Time Alt. Az.
18 Aug 4.0 19:40:07 10° WNW 19:43:20 38° SW 19:43:40 37° SSW visible
19 Aug 3.4 18:57:39 10° NW 19:01:04 64° SW 19:03:07 22° SSE visible
20 Aug 3.1 18:15:17 10° NW 18:18:45 76° NE 18:22:10 10° SE visible
21 Aug 5.7 19:11:02 10° W 19:13:06 15° SW 19:15:10 10° SSW visible
22 Aug 5.2 18:28:03 10° WNW 18:30:54 24° SW 18:33:44 10° S visible
